Location: Firdgum
(53.2488°N, 5.5615°E)
Time: 05:40:12
(UTC+00:00)

Meteor 1-18 Rocket - Pass Details

Date: 08 December 2019
Orbit: 836 x 909 km, 81.2° (Epoch: 18 January)

Event Time Altitude Azimuth Distance (km) Brightness Sun altitude
Exits shadow 05:16:10 - 345° (NNW) 2,539 6.4 -19.9°
Reaches altitude 10° 05:16:21 10° 345° (NNW) 2,468 6.4 -19.9°
Maximum altitude 05:21:56 80° 260° (W) 857 4.1 -19.1°
Drops below altitude 10° 05:27:28 10° 174° (S) 2,450 6.8 -18.3°
Sets 05:29:52 0° 173° (S) 3,385 7.6 -17.9°
